Location: Hernandez
(10.3704°N, 67.2181°W)
Time: 05:34:09
(UTC+00:00)

CZ-4B R/B - Pass Details

Date: 13 April 2024
Orbit: 701 x 800 km, 99.0° (Epoch: 25 May)

Event Time Altitude Azimuth Distance (km) Brightness Sun altitude
Rises 23:29:14 0° 169° (S) 3,257 6.5 -12.8°
Reaches altitude 10° 23:31:35 10° 170° (S) 2,317 5.8 -13.4°
Maximum altitude 23:36:41 80° 257° (WSW) 773 3.6 -14.6°
Drops below altitude 10° 23:41:39 10° 344° (NNW) 2,252 6.3 -15.8°
Sets 23:43:54 0° 346° (NNW) 3,160 7.1 -16.3°
